• în România
  • Lista ţărilor
  • Pe 7 zile
  • Temperatura apei
  • Hartă satelitară
  • Meteo pe hartă
  • Widget-uri
  • user-avatar
    Intrare

    Meteo pe oră la Niegoszow

    Astăzi, 21 Octombrie, Duminică

    Timp Temperatura Precipitaţii Vânt Presiune Umiditate
    00:00 +7°C° 0.1 mm 2 m/s 750 mmHg 77%
    01:00 +7°C° 0.1 mm 2 m/s 750 mmHg 79%
    02:00 +7°C° 0.2 mm 2 m/s 750 mmHg 82%
    03:00 +7°C° 0.2 mm 2 m/s 750 mmHg 84%
    04:00 +6°C° 0.2 mm 2 m/s 750 mmHg 87%
    05:00 +6°C° 0 mm 2 m/s 750 mmHg 88%
    06:00 +6°C° 0 mm 2 m/s 750 mmHg 89%
    07:00 +6°C° 0 mm 2 m/s 750 mmHg 91%
    08:00 +7°C° 0 mm 2 m/s 750 mmHg 85%
    09:00 +8°C° 0 mm 2 m/s 751 mmHg 80%
    10:00 +10°C° 0 mm 2 m/s 751 mmHg 74%
    11:00 +10°C° 0 mm 2 m/s 751 mmHg 70%
    12:00 +12°C° 0 mm 1 m/s 751 mmHg 67%
    13:00 +13°C° 0 mm 1 m/s 751 mmHg 63%
    14:00 +13°C° 0 mm 1 m/s 750 mmHg 64%
    15:00 +12°C° 0 mm 1 m/s 750 mmHg 65%
    16:00 +12°C° 0 mm 1 m/s 750 mmHg 67%
    17:00 +11°C° 0 mm 1 m/s 750 mmHg 72%
    18:00 +10°C° 0 mm 1 m/s 750 mmHg 77%
    19:00 +8°C° 0 mm 1 m/s 750 mmHg 82%
    20:00 +8°C° 0 mm 1 m/s 750 mmHg 83%
    21:00 +8°C° 0 mm 1 m/s 750 mmHg 84%
    22:00 +7°C° 0 mm 1 m/s 751 mmHg 85%
    23:00 +7°C° 0 mm 1 m/s 750 mmHg 86%

    Mâine, 22 Octombrie, Luni

    Timp Temperatura Precipitaţii Vânt Presiune Umiditate
    00:00 +7°C° 0 mm 1 m/s 750 mmHg 86%
    01:00 +7°C° 0 mm 1 m/s 750 mmHg 86%
    02:00 +6°C° 0 mm 1 m/s 750 mmHg 86%
    03:00 +6°C° 0 mm 1 m/s 750 mmHg 86%
    04:00 +6°C° 0 mm 1 m/s 749 mmHg 87%
    05:00 +6°C° 0 mm 1 m/s 750 mmHg 86%
    06:00 +6°C° 0 mm 1 m/s 750 mmHg 86%
    07:00 +6°C° 0 mm 1 m/s 750 mmHg 85%
    08:00 +8°C° 0 mm 1 m/s 750 mmHg 77%
    09:00 +10°C° 0 mm 1 m/s 750 mmHg 68%
    10:00 +12°C° 0 mm 1 m/s 750 mmHg 60%
    11:00 +13°C° 0 mm 2 m/s 749 mmHg 56%
    12:00 +14°C° 0 mm 2 m/s 749 mmHg 52%
    13:00 +15°C° 0 mm 2 m/s 749 mmHg 48%
    14:00 +13°C° 0 mm 3 m/s 748 mmHg 52%
    15:00 +13°C° 0 mm 3 m/s 748 mmHg 57%
    16:00 +12°C° 0 mm 3 m/s 748 mmHg 61%
    17:00 +11°C° 0.1 mm 3 m/s 748 mmHg 68%
    18:00 +10°C° 0.1 mm 3 m/s 749 mmHg 76%
    19:00 +8°C° 0.1 mm 4 m/s 749 mmHg 83%
    20:00 +8°C° 0.2 mm 4 m/s 749 mmHg 83%
    21:00 +8°C° 0.2 mm 4 m/s 750 mmHg 84%
    22:00 +7°C° 0.2 mm 4 m/s 750 mmHg 84%
    23:00 +6°C° 0 mm 4 m/s 750 mmHg 86%

    Poimâine, 23 Octombrie, Marţi

    Timp Temperatura Precipitaţii Vânt Presiune Umiditate
    00:00 +5°C° 0 mm 3 m/s 750 mmHg 88%
    01:00 +4°C° 0 mm 3 m/s 750 mmHg 90%
    02:00 +4°C° 0 mm 3 m/s 750 mmHg 90%
    03:00 +3°C° 0 mm 3 m/s 750 mmHg 90%
    04:00 +3°C° 0 mm 3 m/s 750 mmHg 90%
    05:00 +3°C° 0 mm 3 m/s 749 mmHg 88%
    06:00 +3°C° 0 mm 3 m/s 749 mmHg 87%
    07:00 +3°C° 0 mm 3 m/s 749 mmHg 86%
    08:00 +5°C° 0 mm 4 m/s 748 mmHg 79%
    09:00 +6°C° 0 mm 5 m/s 747 mmHg 71%
    10:00 +7°C° 0 mm 6 m/s 747 mmHg 64%
    11:00 +8°C° 0.1 mm 6 m/s 746 mmHg 63%
    12:00 +8°C° 0.1 mm 7 m/s 745 mmHg 63%
    13:00 +8°C° 0.1 mm 7 m/s 743 mmHg 62%
    14:00 +7°C° 0.4 mm 8 m/s 742 mmHg 65%
    15:00 +7°C° 0.4 mm 8 m/s 741 mmHg 68%
    16:00 +6°C° 0.4 mm 9 m/s 740 mmHg 71%
    17:00 +7°C° 0.3 mm 9 m/s 739 mmHg 73%
    18:00 +7°C° 0.3 mm 10 m/s 738 mmHg 74%
    19:00 +8°C° 0.3 mm 11 m/s 737 mmHg 76%
    20:00 +8°C° 0.4 mm 11 m/s 736 mmHg 77%
    21:00 +9°C° 0.4 mm 11 m/s 736 mmHg 78%
    22:00 +9°C° 0.4 mm 11 m/s 735 mmHg 78%
    23:00 +9°C° 0.6 mm 11 m/s 735 mmHg 77%

    24 Octombrie, Miercuri

    Timp Temperatura Precipitaţii Vânt Presiune Umiditate
    00:00 +9°C° 0.6 mm 10 m/s 735 mmHg 77%
    01:00 +9°C° 0.6 mm 10 m/s 735 mmHg 76%
    02:00 +8°C° 0.2 mm 10 m/s 735 mmHg 75%
    03:00 +7°C° 0.2 mm 10 m/s 735 mmHg 73%
    04:00 +6°C° 0.2 mm 10 m/s 735 mmHg 72%
    05:00 +6°C° 0.1 mm 9 m/s 736 mmHg 71%
    06:00 +5°C° 0.1 mm 8 m/s 736 mmHg 71%
    07:00 +4°C° 0.1 mm 8 m/s 737 mmHg 71%
    08:00 +4°C° 0.1 mm 8 m/s 737 mmHg 68%
    09:00 +5°C° 0.1 mm 9 m/s 738 mmHg 65%
    10:00 +5°C° 0.1 mm 9 m/s 738 mmHg 62%
    11:00 +5°C° 0.1 mm 9 m/s 738 mmHg 59%
    12:00 +6°C° 0.1 mm 9 m/s 738 mmHg 56%
    13:00 +6°C° 0.1 mm 9 m/s 738 mmHg 52%
    14:00 +6°C° 0 mm 8 m/s 739 mmHg 53%
    15:00 +6°C° 0 mm 8 m/s 739 mmHg 53%
    16:00 +6°C° 0 mm 7 m/s 739 mmHg 53%
    17:00 +5°C° 0 mm 6 m/s 740 mmHg 56%
    18:00 +5°C° 0 mm 6 m/s 740 mmHg 58%
    19:00 +4°C° 0 mm 6 m/s 740 mmHg 61%
    20:00 +5°C° 0 mm 5 m/s 741 mmHg 64%
    21:00 +3°C° 0 mm 5 m/s 741 mmHg 67%
    22:00 +3°C° 0 mm 5 m/s 741 mmHg 70%
    23:00 +3°C° 0 mm 5 m/s 741 mmHg 74%

    25 Octombrie, Joi

    Timp Temperatura Precipitaţii Vânt Presiune Umiditate
    00:00 +3°C° 0 mm 5 m/s 741 mmHg 77%
    01:00 +3°C° 0 mm 5 m/s 741 mmHg 81%
    02:00 +4°C° 0 mm 4 m/s 741 mmHg 82%
    03:00 +5°C° 0 mm 4 m/s 741 mmHg 82%
    04:00 +6°C° 0 mm 4 m/s 740 mmHg 83%
    05:00 +6°C° 0.6 mm 5 m/s 740 mmHg 85%
    06:00 +7°C° 0.6 mm 5 m/s 739 mmHg 88%
    07:00 +8°C° 0.6 mm 5 m/s 739 mmHg 90%
    08:00 +9°C° 0.3 mm 6 m/s 739 mmHg 87%
    09:00 +10°C° 0.3 mm 7 m/s 739 mmHg 85%
    10:00 +10°C° 0.3 mm 8 m/s 739 mmHg 82%
    11:00 +11°C° 0.1 mm 8 m/s 739 mmHg 78%
    12:00 +11°C° 0.1 mm 9 m/s 739 mmHg 74%
    13:00 +11°C° 0.1 mm 9 m/s 738 mmHg 70%
    14:00 +10°C° 0 mm 8 m/s 739 mmHg 72%
    15:00 +10°C° 0 mm 7 m/s 739 mmHg 74%
    16:00 +10°C° 0 mm 6 m/s 739 mmHg 76%
    17:00 +9°C° 0 mm 6 m/s 739 mmHg 77%
    18:00 +9°C° 0 mm 6 m/s 739 mmHg 79%
    19:00 +9°C° 0 mm 6 m/s 739 mmHg 81%
    20:00 +9°C° 0 mm 5 m/s 739 mmHg 82%
    21:00 +9°C° 0 mm 5 m/s 739 mmHg 83%
    22:00 +8°C° 0 mm 5 m/s 739 mmHg 84%
    23:00 +8°C° 0 mm 5 m/s 739 mmHg 85%

    26 Octombrie, Vineri

    Timp Temperatura Precipitaţii Vânt Presiune Umiditate
    00:00 +8°C° 0 mm 4 m/s 739 mmHg 86%
    01:00 +7°C° 0 mm 4 m/s 739 mmHg 86%
    02:00 +7°C° 0 mm 4 m/s 739 mmHg 87%
    03:00 +7°C° 0 mm 4 m/s 739 mmHg 88%
    04:00 +7°C° 0 mm 3 m/s 738 mmHg 89%
    05:00 +7°C° 0 mm 3 m/s 738 mmHg 89%
    06:00 +7°C° 0 mm 3 m/s 738 mmHg 90%
    07:00 +5°C° 0 mm 3 m/s 738 mmHg 90%
    08:00 +8°C° 0 mm 3 m/s 738 mmHg 83%
    09:00 +8°C° 0 mm 4 m/s 737 mmHg 77%
    10:00 +11°C° 0 mm 4 m/s 737 mmHg 70%
    11:00 +11°C° 0 mm 4 m/s 737 mmHg 68%
    12:00 +12°C° 0 mm 4 m/s 736 mmHg 66%
    13:00 +12°C° 0 mm 4 m/s 736 mmHg 64%
    14:00 +12°C° 0 mm 4 m/s 735 mmHg 67%
    15:00 +11°C° 0 mm 3 m/s 735 mmHg 69%
    16:00 +12°C° 0 mm 2 m/s 734 mmHg 71%
    17:00 +10°C° 0 mm 2 m/s 734 mmHg 75%
    18:00 +9°C° 0 mm 2 m/s 734 mmHg 78%
    19:00 +8°C° 0 mm 2 m/s 733 mmHg 82%
    20:00 +8°C° 0 mm 2 m/s 733 mmHg 82%
    21:00 +8°C° 0 mm 2 m/s 733 mmHg 83%
    22:00 +8°C° 0 mm 2 m/s 733 mmHg 84%
    23:00 +8°C° 0 mm 2 m/s 732 mmHg 86%
    Arată mai mult